Flag for United Kingdom Weather past 2 weeks in Londonderry, Northern Ireland, United Kingdom

Now
46 °F

Cool.


Feels Like: 44 °F
Forecast: 36 / 47 °F
Wind: 6 mph from North

Location: Castlederg

Current Time: Apr 25, 2015 at 1:42:27 AM

Latest Report: Apr 25, 2015 at 12:00 AM


Visibility: 7 mi

Pressure: 29.54 "Hg

Humidity: 94%

Dew point: 45 °F

Location of LondonderryLocation

Historic Weather in Londonderry — Graph

°F

Londonderry temperature yesterday

Maximum temperature yesterday: 55 °F (at 1:00 PM)
Minimum temperature yesterday: 44 °F (at 7:00 AM)
Average temperature yesterday: 49 °F

Past Weeks' High & Low Weather Summary

 TemperatureHumidityPressure
High68 °F (Apr 23, 4:00 PM)99% (Apr 23, 6:00 AM)30.64 "Hg (Apr 23, 6:00 AM)
Low28 °F (Apr 19, 6:00 AM)35% (Apr 21, 3:00 PM)29.53 "Hg (Apr 24, 11:00 PM)
Average47 °F78%30.16 "Hg
* Reported Midnight between Apr 9 and Apr 10 — Midnight between Apr 24 and Apr 25, Londonderry, Weather by CustomWeather, © 2015

Note: Actual official high and low records may vary slightly from our data, if they occured in-between our weather recording intervals... More about our weather records

Advertising

Londonderry weather history for previous 24 hours

 ConditionsComfort  
Time TempWeatherWind HumidityBarometerVisibility
12:00 AM
Sat, Apr 25
46 °FCool.6 mph94%29.54 "Hg7 mi
11:00 PM
Fri, Apr 24
49 °FLight rain. Overcast.3 mph95%29.53 "Hg4 mi
10:00 PM51 °FRain showers. Overcast.1 mph86%29.54 "Hg6 mi
9:00 PM52 °FCool.3 mph90%29.54 "Hg6 mi
8:00 PM52 °FCool.3 mph86%29.56 "Hg8 mi
7:00 PM53 °FCool.7 mph85%29.58 "Hg8 mi
6:00 PM53 °FRain showers. Cloudy.6 mph79%29.59 "Hg9 mi
5:00 PM53 °FLight rain. Cloudy.9 mph83%29.62 "Hg8 mi
4:00 PM52 °FLight freezing rain. Cloudy.10 mph83%29.65 "Hg7 mi
3:00 PM52 °FCool.8 mph83%29.67 "Hg12 mi
2:00 PM53 °FCool.13 mph80%29.68 "Hg9 mi
1:00 PM55 °FCool.7 mph70%29.69 "Hg19 mi
12:00 PM55 °FCool.7 mph73%29.72 "Hg11 mi
11:00 AM53 °FCool.3 mph78%29.75 "Hg5 mi
10:00 AM47 °FSmoke.5 mph95%29.77 "Hg6 mi
9:00 AM44 °FQuite cool.3 mph99%29.79 "Hg1 mi
8:00 AM44 °FDuststorm.3 mph99%29.80 "Hg1 mi
7:00 AM44 °FDuststorm.5 mph99%29.81 "Hg0 mi
6:00 AM44 °FDuststorm.5 mph99%29.82 "Hg1 mi
5:00 AM45 °FDuststorm.5 mph99%29.83 "Hg0 mi
4:00 AM46 °FDuststorm.No wind98%29.85 "Hg0 mi
3:00 AM46 °FFog.3 mph98%29.88 "Hg1 mi
2:00 AM46 °FFog.3 mph98%29.90 "Hg2 mi
1:00 AM46 °FCool.2 mph98%29.93 "Hg2 mi
Weather by CustomWeather, © 2015

See weather overviewHow to use our weather pages